Погода в Будве

Черногория     42°17′20″N   18°50′38″E
темп.,
°C
ветер,
м/с
пор.,
м/с
влажн.,
%
обл.,
%
осадки,
мм/ч
давл.,
гПа
погр.,
м
17 сентября, пт
пт1723:00+24вюв4458100 0.0 101746
02:00+24в445499 0.0 101650
05:00+24всв555828 0.0 101471
08:00+23сз3264100 0.1 101736
11:00+24вюв5863100 0.4 1014187
14:00+24ююв687293 0.4 1015315
17:00+23вюв6784100 0.0 1012228
20:00+24вюв587598 0.0 1012157
18 сентября, сб
сб1823:00+23всв6678100 0.6 101297
02:00+22всв778016 1.3 1012142
05:00+21всв6580100 1.6 1012146
08:00+22всв55770 2.1 1012149
11:00+23вюв23742 1.8 1013147
14:00+24ююв33741 3.7 1013181
17:00+24вюв11707 0.1 1012107
20:00+23ююв22744 0.2 101214
19 сентября, вс
вс1923:00+23всв447199 0.0 101346
02:00+22в55768 0.8 1012143
05:00+21всв4578100 1.7 1012123
08:00+21всв44775 4.3 1013114
11:00+23юв45732 1.0 1013322
14:00+22юв67831 1.7 1013352
17:00+23юв44810 0.1 1012182
20:00+22вюв33840 0.1 1012111
20 сентября, пн
пн2023:00+23всв44740 0.0 101355
02:00+22всв55725 0.0 101374
05:00+22всв54726 0.3 1013104
08:00+23всв557032 0.3 1013121
11:00+24юв68731 0.2 1014348
14:00+23ююв6781100 0.4 1014529
17:00+23юв6684100 0.4 1013391
20:00+22вюв348499 0.4 1014133
21 сентября, вт
вт2123:00+23всв4473100 0.1 101561
02:00+21всв5580100 1.0 1015107
05:00+21в4475100 3.2 1014177
08:00+22юз2273100 7.4 101699
11:00+22ююв44704 0.7 1017654
14:00+21ююв43813 0.9 1017390
17:00+21ююз21793 0.0 1017293
20:00+21ссз22811 0.1 1018202